Location: Huntsville
(41.2590°N, 111.7678°W)
Time: 08:12:37
(UTC+00:00)

Envisat - Pass Details

Date: 05 December 2021
Orbit: 764 x 766 km, 98.2° (Epoch: 18 January)

Event Time Altitude Azimuth Distance (km) Brightness Sun altitude
Rises 13:15:57 0° 3° (N) 3,242 6.1 -14.9°
Reaches altitude 10° 13:18:25 10° 355° (N) 2,311 5.3 -14.5°
Maximum altitude 13:22:58 34° 291° (WNW) 1,243 3.6 -13.7°
Drops below altitude 10° 13:27:30 10° 228° (SW) 2,296 5.2 -12.8°
Sets 13:29:58 0° 219° (SW) 3,217 6.0 -12.4°
